Voltar ao catálogo

MIDAS 4

AtivoMilitarPO
NORAD 192·PAYLOAD·🇺🇸 United States

Lançado Oct 21, 1961 de Vandenberg Space Force Base

Loading…

Próximas Passagens (próximas 24 horas)

TLE

AtualizadoSource: Space-Track

Época: Sep 14, 2026, 08:38 UTC

1 00192U 61028A   26257.35989498 -.00000026  00000-0 -10272-1 0  9999
2 00192  95.8485 242.3732 0134275 240.2797 118.4635  8.67767974 55895

Acompanhe MIDAS 4 em tempo real com AllMySat

Download on the App Store